Weather History for Manteo, NC

Change the Weather History Date:

Wednesday, May 9, 2012

  Actual Average Record
Temperature  
Mean Temperature 73 °F -  
Max Temperature 78 °F 71 °F 88 °F (2014)
Min Temperature 68 °F 58 °F 44 °F (1987)
Cooling Degree Days 8    
Growing Degree Days 23 (Base 50)    
Moisture  
Dew Point 64 °F    
Average Humidity 73    
Maximum Humidity 88    
Minimum Humidity 57    
Precipitation  
Precipitation 0.00 in - - ()
Sea Level Pressure  
Sea Level Pressure 29.77 in    
Wind  
Wind Speed 10 mph (SSW)    
Max Wind Speed 21 mph    
Max Gust Speed 26 mph    
Visibility 10 miles    
Events Rain    
Averages and records for this station are not official NWS values.
T = Trace of Precipitation, MM = Missing Value Source: NWS Daily Summary

Daily Weather History Graph

Daily Weather History Graph

Search for Another Location

Airport:

Trip Planner

Search our weather history database for the weather conditions in past years. The results will help you decide how hot, cold, wet, or windy it might be!

Date:

Astronomy

May. 09, 2012 Rise Set
Actual Time 6:01 AM EDT 7:57 PM EDT
Civil Twilight 5:33 AM EDT 8:25 PM EDT
Nautical Twilight 4:59 AM EDT 8:59 PM EDT
Astronomical Twilight 4:23 AM EDT 9:35 PM EDT
Moon 11:53 PM EDT (5/9) 9:16 AM EDT (5/9)
Length of Visible Light 14h 51m
Length of Day
13h 55m
Waning Gibbous, 83% of the Moon is Illuminated
May 9
Waning Gibbous
May 12
Last Quarter
May 20
New
May 28
First Quarter
Jun 4
Full

Hourly Weather History & Observations

Time (EDT) Temp. Dew Point Humidity Pressure Visibility Wind Dir Wind Speed Gust Speed Precip Events Conditions
12:15 AM 69.8 °F 60.8 °F 73% 29.93 in 10.0 mi SW 8.1 mph - N/A   Scattered Clouds
12:35 AM 69.8 °F 60.8 °F 73% 29.93 in 10.0 mi SSW 8.1 mph - N/A   Clear
12:55 AM 69.8 °F 60.8 °F 73% 29.92 in 10.0 mi SSW 8.1 mph - N/A   Scattered Clouds
1:15 AM 69.8 °F 60.8 °F 73% 29.92 in 10.0 mi SSW 8.1 mph - N/A   Scattered Clouds
1:35 AM 69.8 °F 60.8 °F 73% 29.91 in 10.0 mi SSW 8.1 mph - N/A   Scattered Clouds
1:55 AM 69.8 °F 59.0 °F 68% 29.91 in 10.0 mi SW 8.1 mph - N/A   Scattered Clouds
2:15 AM 69.8 °F 60.8 °F 73% 29.91 in 10.0 mi SW 8.1 mph - N/A   Clear
2:35 AM 69.8 °F 60.8 °F 73% 29.90 in 10.0 mi SSW 10.4 mph - N/A   Clear
2:55 AM 69.8 °F 60.8 °F 73% 29.89 in 10.0 mi SSW 10.4 mph - N/A   Clear
3:15 AM 69.8 °F 60.8 °F 73% 29.89 in 10.0 mi SW 8.1 mph - N/A   Clear
3:35 AM 68.0 °F 60.8 °F 78% 29.89 in 10.0 mi SW 9.2 mph - N/A   Clear
3:55 AM 68.0 °F 60.8 °F 78% 29.89 in 10.0 mi SW 6.9 mph - N/A   Clear
4:15 AM 68.0 °F 60.8 °F 78% 29.88 in 10.0 mi SW 6.9 mph - N/A   Clear
4:35 AM 68.0 °F 60.8 °F 78% 29.88 in 10.0 mi SW 6.9 mph - N/A   Clear
4:55 AM 68.0 °F 60.8 °F 78% 29.87 in 10.0 mi SW 8.1 mph - N/A   Clear
5:15 AM 68.0 °F 60.8 °F 78% 29.87 in 10.0 mi SW 6.9 mph - N/A   Clear
5:35 AM 68.0 °F 60.8 °F 78% 29.87 in 10.0 mi SW 8.1 mph - N/A   Scattered Clouds
5:55 AM 68.0 °F 60.8 °F 78% 29.87 in 10.0 mi SW 6.9 mph - N/A   Clear
6:15 AM 68.0 °F 60.8 °F 78% 29.87 in 10.0 mi SW 5.8 mph - N/A   Clear
6:35 AM 68.0 °F 62.6 °F 83% 29.87 in 10.0 mi SW 5.8 mph - N/A   Clear
6:55 AM 69.8 °F 62.6 °F 78% 29.87 in 10.0 mi SSW 8.1 mph - N/A   Clear
7:15 AM 69.8 °F 62.6 °F 78% 29.87 in 10.0 mi SSW 9.2 mph - N/A   Clear
7:35 AM 71.6 °F 62.6 °F 73% 29.87 in 10.0 mi SSW 9.2 mph - N/A   Clear
7:55 AM 71.6 °F 62.6 °F 73% 29.87 in 10.0 mi SW 8.1 mph - N/A   Clear
8:15 AM 71.6 °F 62.6 °F 73% 29.86 in 10.0 mi SSW 8.1 mph - N/A   Clear
8:35 AM 73.4 °F 64.4 °F 73% 29.86 in 10.0 mi SSW 10.4 mph - N/A   Clear
8:55 AM 75.2 °F 62.6 °F 65% 29.85 in 10.0 mi SW 11.5 mph - N/A   Clear
9:15 AM 77.0 °F 62.6 °F 61% 29.85 in 10.0 mi SSW 11.5 mph - N/A   Clear
9:35 AM 77.0 °F 62.6 °F 61% 29.84 in 10.0 mi SSW 9.2 mph - N/A   Clear
9:55 AM 78.8 °F 64.4 °F 61% 29.83 in 10.0 mi South 9.2 mph - N/A   Clear
10:15 AM 78.8 °F 62.6 °F 57% 29.83 in 10.0 mi SSW 10.4 mph - N/A   Scattered Clouds
10:35 AM 78.8 °F 64.4 °F 61% 29.83 in 10.0 mi South 11.5 mph - N/A   Scattered Clouds
10:55 AM 77.0 °F 64.4 °F 65% 29.83 in 10.0 mi South 15.0 mph 19.6 mph N/A   Scattered Clouds
11:15 AM 77.0 °F 64.4 °F 65% 29.83 in 10.0 mi South 12.7 mph - N/A   Mostly Cloudy
11:35 AM 77.0 °F 64.4 °F 65% 29.82 in 10.0 mi South 15.0 mph 19.6 mph N/A   Mostly Cloudy
11:55 AM 73.4 °F 66.2 °F 78% 29.81 in 10.0 mi SSE 8.1 mph 11.5 mph N/A   Mostly Cloudy
12:15 PM 73.4 °F 66.2 °F 78% 29.80 in 7.0 mi South 12.7 mph 17.3 mph N/A Rain Rain
12:35 PM 77.0 °F 68.0 °F 74% 29.79 in 10.0 mi South 13.8 mph 18.4 mph N/A   Scattered Clouds
12:55 PM 77.0 °F 66.2 °F 69% 29.78 in 10.0 mi South 11.5 mph - N/A   Scattered Clouds
1:15 PM 77.0 °F 64.4 °F 65% 29.78 in 10.0 mi South 12.7 mph - N/A   Overcast
1:35 PM 78.8 °F 62.6 °F 57% 29.76 in 10.0 mi SSW 17.3 mph - N/A   Mostly Cloudy
1:55 PM 78.8 °F 62.6 °F 57% 29.75 in 10.0 mi South 15.0 mph - N/A   Scattered Clouds
2:15 PM 77.0 °F 64.4 °F 65% 29.75 in 10.0 mi South 13.8 mph - N/A   Scattered Clouds
2:35 PM 78.8 °F 66.2 °F 65% 29.74 in 10.0 mi South 15.0 mph 18.4 mph N/A   Clear
2:55 PM 78.8 °F 68.0 °F 69% 29.73 in 10.0 mi South 16.1 mph 20.7 mph N/A   Clear
3:15 PM 78.8 °F 64.4 °F 61% 29.71 in 10.0 mi South 16.1 mph - N/A   Clear
3:35 PM 78.8 °F 64.4 °F 61% 29.70 in 10.0 mi South 15.0 mph 21.9 mph N/A   Clear
4:35 PM 78.8 °F 68.0 °F 69% 29.67 in 10.0 mi South 16.1 mph 21.9 mph N/A   Clear
4:55 PM 75.2 °F 66.2 °F 73% 29.67 in 10.0 mi South 18.4 mph - N/A   Scattered Clouds
5:15 PM 75.2 °F 64.4 °F 69% 29.66 in 10.0 mi South 15.0 mph 20.7 mph N/A   Scattered Clouds
5:35 PM 77.0 °F 66.2 °F 69% 29.65 in 10.0 mi South 16.1 mph 23.0 mph N/A   Scattered Clouds
5:55 PM 75.2 °F 64.4 °F 69% 29.65 in 10.0 mi South 16.1 mph 23.0 mph N/A   Clear
6:15 PM 75.2 °F 64.4 °F 69% 29.64 in 10.0 mi South 15.0 mph 21.9 mph N/A   Scattered Clouds
6:35 PM 75.2 °F 66.2 °F 73% 29.64 in 10.0 mi South 17.3 mph - N/A   Clear
6:55 PM 75.2 °F 66.2 °F 73% 29.63 in 10.0 mi SSW 20.7 mph 26.5 mph N/A   Clear
7:15 PM 75.2 °F 66.2 °F 73% 29.63 in 10.0 mi SSW 19.6 mph - N/A   Scattered Clouds
7:35 PM 75.2 °F 66.2 °F 73% 29.63 in 10.0 mi SSW 19.6 mph 25.3 mph N/A   Scattered Clouds
7:55 PM 73.4 °F 66.2 °F 78% 29.63 in 10.0 mi SSW 18.4 mph - N/A   Clear
8:15 PM 73.4 °F 66.2 °F 78% 29.62 in 10.0 mi SSW 17.3 mph - N/A   Scattered Clouds
8:35 PM 73.4 °F 68.0 °F 83% 29.62 in 10.0 mi SSW 15.0 mph 20.7 mph N/A   Clear
8:55 PM 73.4 °F 68.0 °F 83% 29.62 in 10.0 mi SW 15.0 mph - N/A   Light Drizzle
9:15 PM 73.4 °F 66.2 °F 78% 29.61 in 10.0 mi SW 16.1 mph - N/A Rain Light Rain
9:35 PM 68.0 °F 64.4 °F 88% 29.64 in 2.5 mi WNW 10.4 mph - N/A Rain Heavy Rain
9:55 PM 68.0 °F 64.4 °F 88% 29.64 in 7.0 mi NW 5.8 mph - N/A Rain Rain
10:15 PM 68.0 °F 64.4 °F 88% 29.63 in 7.0 mi NW 3.5 mph - N/A Rain Rain
10:35 PM 68.0 °F 64.4 °F 88% 29.61 in 10.0 mi WNW 4.6 mph - N/A   Drizzle
10:55 PM 68.0 °F 64.4 °F 88% 29.60 in 10.0 mi Calm Calm - N/A   Light Drizzle
11:15 PM 68.0 °F 64.4 °F 88% 29.60 in 10.0 mi WNW 3.5 mph - N/A   Overcast
11:35 PM 68.0 °F 64.4 °F 88% 29.60 in 10.0 mi Calm Calm - N/A   Overcast
11:55 PM 68.0 °F 62.6 °F 83% 29.60 in 10.0 mi Calm Calm - N/A   Mostly Cloudy